Weather in Vakulove

Ukraine / Dnipropetrovsk Region     47°53′53″N   33°55′52″E
temp.,
°C
wind,
m/s
gust,
m/s
humid.,
%
clouds,
%
prec.,
mm/h
press.,
hPa
HPBL,
m
6 may, thu
thu600:00+10sse4965100 0.0 1014244
03:00+9sse3869100 0.0 1014207
06:00+9sse4868100 0.0 1013228
09:00+13s6960100 0.0 1013600
12:00+17ssw5648100 0.0 10121261
15:00+15w6757100 0.0 1012484
18:00+17wsw5652100 0.0 1012633
21:00+11n4793100 0.1 1014275
7 may, fri
fri700:00+10n3585100 0.3 1015217
03:00+8n3486100 0.3 101677
06:00+8ne338453 0.0 101763
09:00+14e3459100 0.0 1017490
12:00+17se4443100 0.0 10161140
15:00+19s5538100 0.0 10141364
18:00+19sse4756100 0.0 10121005
21:00+15s41169100 0.0 1012270
8 may, sat
sat800:00+14s51075100 0.3 1012343
03:00+13sse4985100 0.7 1011324
06:00+13s51389100 0.1 1010461
09:00+15ssw71280100 0.6 1010777
12:00+13sw5995100 4.3 1011594
15:00+9nnw71194100 15.9 1013614
18:00+7nnw61192100 8.3 1015887
21:00+8nw2490100 11.6 1016277
9 may, sun
sun900:00+8nw41180100 0.1 1016459
03:00+5nw5138681 0.1 1018363
06:00+4nw512870 0.0 1020325
09:00+9nw69683 0.0 1022920
12:00+13nw8104611 0.1 10232244
15:00+14nw8104148 0.1 10232568
18:00+13nnw68509 0.0 10241881
21:00+8nw49615 0.0 1027168
10 may, mon
mon1000:00+6nnw356610 0.0 102767
03:00+6nnw33664 0.0 102842
06:00+5nnw34720 0.0 102861
09:00+12n45541 0.0 1028624
12:00+15n45405 0.0 10271759
15:00+16nnw56375 0.0 10252198
18:00+16nnw57506 0.0 10232066
21:00+10nnw49715 0.0 1023149